This is the latest recevied weather packets stored in our database for station/object VR2HK-13. If no packets are shown the sender has not sent any weather packets the latest 1 day(s).
| Time | Temp. | Humidity | Pressure | Rain* | Wind** | Luminosity | Snow |
|---|---|---|---|---|---|---|---|
| 1778062808 | 23.89° C | 82% | 1011.6 hPa | 0.25 mm | 0 m/s | - | - |
| 1778062789 | 23.89° C | 82% | 1011.6 hPa | 0.25 mm | 0 m/s | - | - |
| 1778062508 | 23.89° C | 82% | 1011.7 hPa | 0.25 mm | 2.68 m/s, 49° | - | - |
| 1778062479 | 23.89° C | 82% | 1011.7 hPa | 0.25 mm | 1.34 m/s, 51° | - | - |
| 1778062208 | 23.89° C | 82% | 1011.6 hPa | 0.51 mm | 0.45 m/s, 207° | - | - |
| 1778062169 | 23.89° C | 81% | 1011.6 hPa | 0.51 mm | 0 m/s | - | - |
| 1778061907 | 24.44° C | 81% | 1011.6 hPa | 0.51 mm | 3.13 m/s, 216° | - | - |
| 1778061859 | 24.44° C | 81% | 1011.6 hPa | 0.51 mm | 1.34 m/s, 219° | - | - |
| 1778061608 | 24.44° C | 81% | 1011.5 hPa | 0.51 mm | 1.34 m/s, 341° | - | - |
| 1778061549 | 24.44° C | 81% | 1011.5 hPa | 0.51 mm | 0.45 m/s, 12° | - | - |
| 1778061308 | 24.44° C | 81% | 1011.4 hPa | 0.51 mm | 0.45 m/s, 39° | - | - |
| 1778061239 | 24.44° C | 81% | 1011.5 hPa | 0.51 mm | 0 m/s | - | - |
| 1778061007 | 24.44° C | 81% | 1011.5 hPa | 0.51 mm | 0.89 m/s, 347° | - | - |
| 1778060929 | 24.44° C | 81% | 1011.5 hPa | 0.51 mm | 1.79 m/s, 263° | - | - |
| 1778060708 | 24.44° C | 81% | 1011.5 hPa | 0.51 mm | 0.45 m/s, 2° | - | - |
| 1778060619 | 24.44° C | 81% | 1011.5 hPa | 0.51 mm | 0.89 m/s, 348° | - | - |
| 1778060408 | 24.44° C | 81% | 1011.4 hPa | 0.51 mm | 1.79 m/s, 272° | - | - |
| 1778060309 | 24.44° C | 81% | 1011.4 hPa | 0.51 mm | 0.45 m/s, 11° | - | - |
| 1778060107 | 24.44° C | 81% | 1011.4 hPa | 0.76 mm | 0.89 m/s, 7° | - | - |
| 1778059999 | 24.44° C | 81% | 1011.4 hPa | 1.02 mm | 0.45 m/s, 129° | - | - |
| 1778059808 | 24.44° C | 82% | 1011.4 hPa | 0.76 mm | 0 m/s | - | - |
| 1778059508 | 24.44° C | 81% | 1011.4 hPa | 1.27 mm | 0.45 m/s, 346° | - | - |
| 1778059379 | 24.44° C | 81% | 1011.5 hPa | 1.27 mm | 2.24 m/s, 343° | - | - |
| 1778059208 | 24.44° C | 81% | 1011.5 hPa | 1.27 mm | 0.45 m/s, 271° | - | - |
| 1778059068 | 24.44° C | 81% | 1011.5 hPa | 1.27 mm | 1.34 m/s, 222° | - | - |
* Rain latest hour (hover to see other rain measurements)
** Current wind speed in m/s (hover to see current wind gust speed)